NOZ1412 ENGM-LFMT

Flight info

Callsign NOZ1412
Flight time 2h 41m
Altitude 34000
Route VIPPA DCT LUTIR DCT LIMGO DCT SUTAL DCT GTQ DCT POGOL DCT LASAT DCT MOROK DCT GILIR DCT GEVEA DCT INCUS DCT BALSI DCT ETIDO DCT KURIR DCT MTL DCT MOLEN DCT NG
Aircraft B738/M-SDE2E3FGHIRWXY/LB1

Departure

Time 2026-04-18 08:40
Airport Oslo-Gardermoen International Airport (ENGM)

Arrival

Time 2026-04-18 11:22
Airport Montpellier-Méditerranée Airport (LFMT)
Time Latitude Longitude Altitude Speed Heading
2026-04-18 07:20 60.19391 11.10647 681 ft 0 kts 196°
2026-04-18 08:24 60.19410 11.10658 679 ft 4 kts 196°
2026-04-18 08:24 60.19436 11.10673 684 ft 4 kts 196°
2026-04-18 08:24 60.19462 11.10687 680 ft 4 kts 196°
2026-04-18 08:24 60.19486 11.10693 680 ft 4 kts 153°
2026-04-18 08:25 60.19500 11.10663 681 ft 2 kts 106°
2026-04-18 08:25 60.19498 11.10682 681 ft 4 kts 106°
2026-04-18 08:25 60.19490 11.10733 680 ft 3 kts 106°
2026-04-18 08:25 60.19490 11.10739 681 ft 1 kts 106°
2026-04-18 08:30 60.19488 11.10747 681 ft 2 kts 106°
2026-04-18 08:30 60.19479 11.10814 682 ft 7 kts 106°
2026-04-18 08:30 60.19465 11.10909 682 ft 7 kts 106°
2026-04-18 08:30 60.19452 11.11001 682 ft 7 kts 106°
2026-04-18 08:31 60.19439 11.11092 682 ft 7 kts 106°
2026-04-18 08:31 60.19426 11.11184 682 ft 7 kts 106°
2026-04-18 08:31 60.19395 11.11251 683 ft 7 kts 163°
2026-04-18 08:31 60.19347 11.11239 683 ft 7 kts 194°
2026-04-18 08:32 60.19292 11.11206 682 ft 9 kts 196°
2026-04-18 08:32 60.19222 11.11166 683 ft 12 kts 195°
2026-04-18 08:32 60.19134 11.11117 683 ft 15 kts 195°
2026-04-18 08:32 60.19025 11.11054 682 ft 18 kts 197°
2026-04-18 08:33 60.18903 11.10982 682 ft 18 kts 196°
2026-04-18 08:33 60.18783 11.10913 682 ft 18 kts 195°
2026-04-18 08:33 60.18668 11.10846 681 ft 17 kts 197°
2026-04-18 08:33 60.18558 11.10782 681 ft 16 kts 195°
2026-04-18 08:34 60.18451 11.10723 678 ft 16 kts 195°
2026-04-18 08:34 60.18348 11.10661 677 ft 15 kts 197°
2026-04-18 08:34 60.18249 11.10605 679 ft 14 kts 195°
2026-04-18 08:34 60.18154 11.10553 679 ft 14 kts 195°
2026-04-18 08:35 60.18064 11.10497 678 ft 13 kts 196°
2026-04-18 08:35 60.17978 11.10448 678 ft 13 kts 195°
2026-04-18 08:35 60.17893 11.10398 677 ft 12 kts 197°
2026-04-18 08:35 60.17811 11.10351 677 ft 11 kts 196°
2026-04-18 08:36 60.17766 11.10326 677 ft 6 kts 195°
2026-04-18 08:36 60.17727 11.10304 677 ft 6 kts 196°
2026-04-18 08:36 60.17703 11.10291 676 ft 3 kts 195°
2026-04-18 08:36 60.17684 11.10289 676 ft 0 kts 174°
2026-04-18 08:37 60.17681 11.10290 676 ft 1 kts 171°
2026-04-18 08:37 60.17674 11.10295 673 ft 0 kts 162°
2026-04-18 08:37 60.17670 11.10297 674 ft 0 kts 158°
2026-04-18 08:38 60.17664 11.10304 673 ft 3 kts 149°
2026-04-18 08:38 60.17644 11.10379 672 ft 9 kts 107°
2026-04-18 08:38 60.17626 11.10504 675 ft 9 kts 105°
2026-04-18 08:38 60.17609 11.10627 678 ft 9 kts 106°
2026-04-18 08:39 60.17598 11.10737 678 ft 5 kts 97°
2026-04-18 08:39 60.17609 11.10794 675 ft 5 kts 35°
2026-04-18 08:39 60.17640 11.10816 679 ft 5 kts 16°
2026-04-18 08:39 60.17722 11.10865 679 ft 32 kts 16°
2026-04-18 08:40 60.18167 11.11125 679 ft 100 kts 16°
2026-04-18 08:40 60.19026 11.11620 682 ft 155 kts 16°
2026-04-18 08:40 60.20178 11.12338 952 ft 181 kts 19°
2026-04-18 08:40 60.21344 11.13313 1756 ft 184 kts 40°
2026-04-18 08:41 60.21958 11.15445 2443 ft 180 kts 89°
2026-04-18 08:41 60.22015 11.17979 3164 ft 186 kts 90°
2026-04-18 08:41 60.22122 11.20754 3466 ft 211 kts 88°
2026-04-18 08:41 60.22269 11.23848 3728 ft 231 kts 87°
2026-04-18 08:42 60.22427 11.27126 4226 ft 238 kts 92°
2026-04-18 08:42 60.22031 11.30276 4814 ft 233 kts 126°
2026-04-18 08:42 60.20843 11.32492 5254 ft 243 kts 155°
2026-04-18 08:42 60.19224 11.33652 5844 ft 251 kts 165°
2026-04-18 08:43 60.17513 11.34555 6581 ft 256 kts 166°
2026-04-18 08:43 60.15748 11.35055 7292 ft 259 kts 186°
2026-04-18 08:43 60.14015 11.34076 8077 ft 261 kts 202°
2026-04-18 08:43 60.12378 11.32453 8823 ft 264 kts 207°
2026-04-18 08:44 60.10768 11.30669 9579 ft 266 kts 208°
2026-04-18 08:44 60.09143 11.28837 10313 ft 269 kts 208°
2026-04-18 08:44 60.07470 11.26957 10674 ft 286 kts 209°
2026-04-18 08:44 60.05661 11.24939 10845 ft 308 kts 208°
2026-04-18 08:45 60.03721 11.22795 11011 ft 329 kts 208°
2026-04-18 08:45 60.01655 11.20525 11163 ft 349 kts 208°
2026-04-18 08:45 59.99467 11.18133 11310 ft 367 kts 208°
2026-04-18 08:45 59.97184 11.15647 11642 ft 379 kts 208°
2026-04-18 08:46 59.94856 11.13122 12207 ft 383 kts 209°
2026-04-18 08:46 59.92501 11.10574 12810 ft 387 kts 209°
2026-04-18 08:46 59.90123 11.08007 13362 ft 392 kts 209°
2026-04-18 08:46 59.87710 11.05405 13899 ft 396 kts 209°
2026-04-18 08:47 59.85272 11.02783 14410 ft 400 kts 209°
2026-04-18 08:47 59.82847 11.00180 14975 ft 401 kts 209°
2026-04-18 08:47 59.80387 10.97543 15555 ft 403 kts 209°
2026-04-18 08:47 59.77910 10.94893 16098 ft 405 kts 209°
2026-04-18 08:48 59.75424 10.92236 16611 ft 408 kts 209°
2026-04-18 08:48 59.72916 10.89561 17135 ft 410 kts 209°
2026-04-18 08:48 59.70342 10.87105 17708 ft 412 kts 201°
2026-04-18 08:48 59.67610 10.85380 18322 ft 413 kts 198°
2026-04-18 08:49 59.64842 10.83777 18784 ft 415 kts 197°
2026-04-18 08:49 59.62060 10.82182 19211 ft 417 kts 197°
2026-04-18 08:49 59.59269 10.80571 19653 ft 419 kts 198°
2026-04-18 08:49 59.56466 10.78935 20097 ft 421 kts 198°
2026-04-18 08:50 59.53653 10.77277 20529 ft 423 kts 198°
2026-04-18 08:50 59.50829 10.75603 20948 ft 425 kts 198°
2026-04-18 08:50 59.47993 10.73915 21360 ft 426 kts 198°
2026-04-18 08:50 59.45152 10.72223 21763 ft 428 kts 198°
2026-04-18 08:51 59.42290 10.70520 22177 ft 430 kts 198°
2026-04-18 08:51 59.39421 10.68814 22580 ft 431 kts 198°
2026-04-18 08:51 59.36544 10.67106 22961 ft 433 kts 198°
2026-04-18 08:51 59.33657 10.65395 23319 ft 435 kts 198°
2026-04-18 08:52 59.30749 10.63676 23548 ft 437 kts 198°
2026-04-18 08:52 59.27833 10.61955 23871 ft 438 kts 198°
2026-04-18 08:52 59.24906 10.60232 24175 ft 440 kts 198°
2026-04-18 08:52 59.21969 10.58506 24471 ft 441 kts 198°
2026-04-18 08:53 59.19025 10.56778 24766 ft 443 kts 198°
2026-04-18 08:53 59.16070 10.55048 25058 ft 444 kts 199°
2026-04-18 08:53 59.13119 10.53323 25397 ft 444 kts 199°
2026-04-18 08:53 59.10152 10.51591 25680 ft 445 kts 199°
2026-04-18 08:54 59.07183 10.49861 25927 ft 447 kts 199°
2026-04-18 08:54 59.04203 10.48128 26278 ft 447 kts 199°
2026-04-18 08:54 59.01227 10.46402 26681 ft 445 kts 199°
2026-04-18 08:54 58.98310 10.44713 27111 ft 442 kts 199°
2026-04-18 08:55 58.95366 10.43012 27511 ft 440 kts 199°
2026-04-18 08:55 58.92439 10.41322 27869 ft 439 kts 199°
2026-04-18 08:55 58.89511 10.39634 28206 ft 438 kts 199°
2026-04-18 08:55 58.86592 10.37955 28612 ft 436 kts 199°
2026-04-18 08:56 58.83692 10.36290 29016 ft 434 kts 199°
2026-04-18 08:56 58.80796 10.34630 29384 ft 433 kts 199°
2026-04-18 08:56 58.77911 10.32979 29730 ft 433 kts 199°
2026-04-18 08:56 58.75025 10.31330 30096 ft 431 kts 199°
2026-04-18 08:57 58.69295 10.28065 30751 ft 428 kts 199°
2026-04-18 08:57 58.66439 10.26441 31063 ft 427 kts 199°
2026-04-18 08:57 58.63599 10.24830 31372 ft 425 kts 199°
2026-04-18 08:58 58.61680 10.23743 31553 ft 424 kts 199°
2026-04-18 08:58 58.58852 10.22143 31832 ft 423 kts 199°
2026-04-18 08:58 58.56032 10.20550 32128 ft 422 kts 200°
2026-04-18 08:58 58.53253 10.18983 32446 ft 420 kts 200°
2026-04-18 08:59 58.50457 10.17409 32745 ft 418 kts 200°
2026-04-18 08:59 58.47632 10.15821 33017 ft 417 kts 200°
2026-04-18 08:59 58.44883 10.14279 33279 ft 417 kts 200°
2026-04-18 08:59 58.42104 10.12722 33520 ft 416 kts 200°
2026-04-18 09:00 58.39327 10.11168 33750 ft 415 kts 200°
2026-04-18 09:00 58.36562 10.09623 34045 ft 414 kts 200°
2026-04-18 09:00 58.33802 10.08085 34215 ft 414 kts 200°
2026-04-18 09:00 58.31022 10.06537 34207 ft 416 kts 200°
2026-04-18 09:01 58.25477 10.03460 34205 ft 413 kts 200°
2026-04-18 09:01 58.19969 10.00414 34200 ft 411 kts 200°
2026-04-18 09:02 58.14481 9.97387 34198 ft 410 kts 200°
2026-04-18 09:02 58.09011 9.94379 34196 ft 409 kts 200°
2026-04-18 09:03 58.03546 9.91383 34198 ft 409 kts 200°
2026-04-18 09:03 57.98077 9.88395 34194 ft 409 kts 200°
2026-04-18 09:04 57.92639 9.85432 34196 ft 410 kts 200°
2026-04-18 09:04 57.87149 9.82452 34191 ft 411 kts 200°
2026-04-18 09:05 57.81642 9.79472 34165 ft 412 kts 200°
2026-04-18 09:05 57.76130 9.76499 34180 ft 413 kts 200°
2026-04-18 09:06 57.70604 9.73528 34186 ft 413 kts 200°
2026-04-18 09:06 57.65072 9.70562 34183 ft 414 kts 200°
2026-04-18 09:07 57.59536 9.67605 34181 ft 414 kts 199°
2026-04-18 09:07 57.54015 9.64566 34175 ft 413 kts 199°
2026-04-18 09:08 57.48501 9.61680 34174 ft 411 kts 199°
2026-04-18 09:08 57.43007 9.58813 34177 ft 410 kts 199°
2026-04-18 09:09 57.37525 9.55936 34174 ft 408 kts 199°
2026-04-18 09:09 57.32066 9.53068 34185 ft 408 kts 199°
2026-04-18 09:10 57.26602 9.50202 34164 ft 408 kts 199°
2026-04-18 09:10 57.21148 9.47350 34159 ft 407 kts 199°
2026-04-18 09:11 57.15709 9.44516 34164 ft 406 kts 199°
2026-04-18 09:11 57.10281 9.41696 34172 ft 405 kts 199°
2026-04-18 09:12 57.04892 9.38904 34175 ft 406 kts 199°
2026-04-18 09:12 56.99449 9.36092 34168 ft 406 kts 199°
2026-04-18 09:13 56.94013 9.33294 34178 ft 406 kts 199°
2026-04-18 09:13 56.88576 9.30503 34174 ft 406 kts 199°
2026-04-18 09:14 56.83124 9.27713 34164 ft 407 kts 199°
2026-04-18 09:14 56.77665 9.24928 34179 ft 408 kts 199°
2026-04-18 09:15 56.72201 9.22149 34171 ft 408 kts 199°
2026-04-18 09:15 56.66731 9.19375 34165 ft 408 kts 199°
2026-04-18 09:16 56.61261 9.16610 34166 ft 408 kts 199°
2026-04-18 09:16 56.55792 9.13853 34165 ft 407 kts 199°
2026-04-18 09:17 56.50328 9.11107 34142 ft 407 kts 199°
2026-04-18 09:17 56.44874 9.08375 34160 ft 406 kts 199°
2026-04-18 09:18 56.39421 9.05651 34158 ft 406 kts 199°
2026-04-18 09:18 56.33974 9.02938 34157 ft 406 kts 199°
2026-04-18 09:19 56.28526 9.00232 34153 ft 406 kts 199°
2026-04-18 09:19 56.23122 8.97556 34148 ft 405 kts 199°
2026-04-18 09:20 56.17687 8.94873 34160 ft 405 kts 198°
2026-04-18 09:20 56.12249 8.92196 34159 ft 405 kts 198°
2026-04-18 09:21 56.06820 8.89531 34159 ft 405 kts 198°
2026-04-18 09:21 56.01382 8.86870 34155 ft 405 kts 198°
2026-04-18 09:22 55.95943 8.84216 34154 ft 405 kts 198°
2026-04-18 09:22 55.90502 8.81569 34151 ft 405 kts 198°
2026-04-18 09:23 55.85066 8.78932 34159 ft 405 kts 198°
2026-04-18 09:23 55.79630 8.76302 34156 ft 405 kts 198°
2026-04-18 09:24 55.74195 8.73681 34155 ft 405 kts 198°
2026-04-18 09:24 55.68753 8.71064 34158 ft 405 kts 198°
2026-04-18 09:25 55.63314 8.68455 34156 ft 405 kts 198°
2026-04-18 09:25 55.57877 8.65856 34150 ft 405 kts 198°
2026-04-18 09:26 55.52434 8.63261 34158 ft 405 kts 198°
2026-04-18 09:26 55.47026 8.60689 34136 ft 405 kts 198°
2026-04-18 09:27 55.41586 8.58110 34153 ft 405 kts 198°
2026-04-18 09:27 55.36143 8.55537 34157 ft 405 kts 198°
2026-04-18 09:28 55.30694 8.52968 34151 ft 405 kts 198°
2026-04-18 09:28 55.25244 8.50406 34154 ft 406 kts 198°
2026-04-18 09:29 55.19790 8.47849 34143 ft 406 kts 198°
2026-04-18 09:29 55.14338 8.45300 34153 ft 405 kts 198°
2026-04-18 09:30 55.08889 8.42759 34138 ft 405 kts 198°
2026-04-18 09:30 55.03428 8.40247 34134 ft 406 kts 198°
2026-04-18 09:31 54.97958 8.37817 34130 ft 406 kts 197°
2026-04-18 09:31 54.92482 8.35398 34128 ft 406 kts 197°
2026-04-18 09:32 54.87010 8.32980 34125 ft 406 kts 197°
2026-04-18 09:32 54.81530 8.30560 34155 ft 406 kts 197°
2026-04-18 09:33 54.76050 8.28146 34158 ft 406 kts 197°
2026-04-18 09:33 54.70569 8.25737 34146 ft 407 kts 197°
2026-04-18 09:34 54.65085 8.23333 34152 ft 407 kts 197°
2026-04-18 09:34 54.59594 8.20934 34150 ft 407 kts 197°
2026-04-18 09:35 54.54144 8.18558 34151 ft 407 kts 197°
2026-04-18 09:35 54.48659 8.16174 34156 ft 407 kts 197°
2026-04-18 09:36 54.43169 8.13795 34156 ft 407 kts 197°
2026-04-18 09:36 54.37678 8.11421 34166 ft 407 kts 197°
2026-04-18 09:37 54.32185 8.09054 34167 ft 407 kts 197°
2026-04-18 09:37 54.26683 8.06688 34167 ft 408 kts 197°
2026-04-18 09:38 54.21179 8.04329 34153 ft 408 kts 197°
2026-04-18 09:38 54.15672 8.01975 34173 ft 408 kts 197°
2026-04-18 09:39 54.10155 7.99623 34171 ft 409 kts 197°
2026-04-18 09:39 54.04632 7.97275 34170 ft 409 kts 197°
2026-04-18 09:40 53.99141 7.94947 34169 ft 409 kts 197°
2026-04-18 09:40 53.93606 7.92607 34161 ft 410 kts 197°
2026-04-18 09:41 53.88072 7.90273 34163 ft 410 kts 197°
2026-04-18 09:41 53.82531 7.87942 34160 ft 411 kts 197°
2026-04-18 09:42 53.76977 7.85613 34159 ft 411 kts 197°
2026-04-18 09:42 53.71424 7.83291 34148 ft 411 kts 197°
2026-04-18 09:43 53.65867 7.80972 34182 ft 412 kts 197°
2026-04-18 09:43 53.60305 7.78659 34167 ft 411 kts 197°
2026-04-18 09:44 53.54749 7.76355 34156 ft 411 kts 197°
2026-04-18 09:44 53.49202 7.74061 34157 ft 410 kts 197°
2026-04-18 09:45 53.44592 7.72158 34156 ft 410 kts 197°
2026-04-18 09:45 53.39047 7.69875 34156 ft 410 kts 197°
2026-04-18 09:46 53.32602 7.67229 34160 ft 410 kts 197°
2026-04-18 09:46 53.27952 7.65325 34159 ft 411 kts 197°
2026-04-18 09:47 53.22401 7.63058 34161 ft 411 kts 197°
2026-04-18 09:47 53.16852 7.60798 34163 ft 411 kts 197°
2026-04-18 09:48 53.11337 7.58558 34165 ft 411 kts 197°
2026-04-18 09:48 53.05782 7.56307 34167 ft 411 kts 197°
2026-04-18 09:49 53.00229 7.54063 34144 ft 411 kts 197°
2026-04-18 09:49 52.94674 7.51825 34167 ft 411 kts 197°
2026-04-18 09:50 52.89118 7.49591 34173 ft 412 kts 197°
2026-04-18 09:50 52.83544 7.47357 34169 ft 412 kts 197°
2026-04-18 09:51 52.77958 7.45123 34176 ft 413 kts 197°
2026-04-18 09:51 52.72361 7.42891 34178 ft 414 kts 197°
2026-04-18 09:52 52.66794 7.40677 34185 ft 414 kts 197°
2026-04-18 09:52 52.61187 7.38453 34185 ft 415 kts 197°
2026-04-18 09:53 52.55571 7.36231 34185 ft 415 kts 197°
2026-04-18 09:53 52.49950 7.34013 34178 ft 416 kts 197°
2026-04-18 09:54 52.44318 7.31797 34181 ft 417 kts 197°
2026-04-18 09:54 52.38676 7.29582 34182 ft 417 kts 197°
2026-04-18 09:55 52.33030 7.27372 34182 ft 417 kts 197°
2026-04-18 09:55 52.27389 7.25170 34172 ft 417 kts 197°
2026-04-18 09:56 52.21750 7.22974 34179 ft 417 kts 197°
2026-04-18 09:56 52.16103 7.20780 34186 ft 418 kts 197°
2026-04-18 09:57 52.10444 7.18588 34178 ft 418 kts 197°
2026-04-18 09:57 52.04818 7.16414 34175 ft 419 kts 197°
2026-04-18 09:58 51.99149 7.14229 34188 ft 419 kts 197°
2026-04-18 09:58 51.93471 7.12046 34183 ft 420 kts 197°
2026-04-18 09:59 51.87785 7.09866 34188 ft 420 kts 197°
2026-04-18 10:00 51.79251 7.06606 34189 ft 420 kts 197°
2026-04-18 10:00 51.73560 7.04438 34191 ft 420 kts 197°
2026-04-18 10:01 51.67868 7.02275 34193 ft 421 kts 197°
2026-04-18 10:01 51.62166 7.00114 34189 ft 421 kts 197°
2026-04-18 10:02 51.56456 6.97956 34188 ft 421 kts 197°
2026-04-18 10:02 51.50779 6.95816 34193 ft 422 kts 197°
2026-04-18 10:03 51.45056 6.93663 34185 ft 422 kts 197°
2026-04-18 10:03 51.39333 6.91517 34193 ft 423 kts 197°
2026-04-18 10:04 51.33600 6.89372 34184 ft 423 kts 197°
2026-04-18 10:04 51.27866 6.87233 34187 ft 424 kts 197°
2026-04-18 10:05 51.22118 6.85093 34183 ft 424 kts 197°
2026-04-18 10:05 51.16369 6.82959 34188 ft 424 kts 197°
2026-04-18 10:06 51.10613 6.80828 34183 ft 424 kts 197°
2026-04-18 10:06 51.04859 6.78703 34189 ft 425 kts 197°
2026-04-18 10:07 50.99101 6.76582 34208 ft 425 kts 197°
2026-04-18 10:07 50.93335 6.74463 34211 ft 425 kts 197°
2026-04-18 10:08 50.87562 6.72347 34206 ft 426 kts 197°
2026-04-18 10:08 50.81782 6.70234 34211 ft 426 kts 197°
2026-04-18 10:09 50.76003 6.68126 34216 ft 426 kts 197°
2026-04-18 10:09 50.70222 6.66024 34206 ft 426 kts 197°
2026-04-18 10:10 50.64441 6.63926 34204 ft 426 kts 197°
2026-04-18 10:10 50.58694 6.61847 34181 ft 426 kts 197°
2026-04-18 10:11 50.52910 6.59759 34178 ft 427 kts 197°
2026-04-18 10:11 50.47119 6.57673 34169 ft 427 kts 197°
2026-04-18 10:12 50.41330 6.55594 34162 ft 427 kts 197°
2026-04-18 10:12 50.35539 6.53519 34166 ft 427 kts 197°
2026-04-18 10:13 50.29735 6.51444 34163 ft 428 kts 197°
2026-04-18 10:13 50.23925 6.49373 34155 ft 428 kts 197°
2026-04-18 10:14 50.18109 6.47304 34162 ft 429 kts 197°
2026-04-18 10:14 50.12278 6.45236 34155 ft 430 kts 197°
2026-04-18 10:15 50.06434 6.43168 34164 ft 431 kts 197°
2026-04-18 10:15 50.00582 6.41103 34138 ft 431 kts 197°
2026-04-18 10:16 49.94730 6.39043 34166 ft 432 kts 197°
2026-04-18 10:16 49.88905 6.36997 34187 ft 432 kts 197°
2026-04-18 10:17 49.83028 6.34937 34196 ft 433 kts 197°
2026-04-18 10:17 49.77149 6.32877 34193 ft 433 kts 197°
2026-04-18 10:18 49.71270 6.30833 34204 ft 433 kts 197°
2026-04-18 10:18 49.65319 6.29328 34206 ft 440 kts 184°
2026-04-18 10:19 49.59220 6.30923 34197 ft 454 kts 164°
2026-04-18 10:19 49.53374 6.34816 34206 ft 461 kts 161°
2026-04-18 10:20 49.47441 6.38737 34220 ft 467 kts 162°
2026-04-18 10:20 49.41465 6.42692 34199 ft 468 kts 161°
2026-04-18 10:21 49.35508 6.46764 34196 ft 468 kts 161°
2026-04-18 10:21 49.29554 6.50819 34185 ft 468 kts 161°
2026-04-18 10:22 49.23598 6.54845 34194 ft 467 kts 161°
2026-04-18 10:22 49.17650 6.58847 34192 ft 467 kts 161°
2026-04-18 10:23 49.11695 6.62843 34183 ft 466 kts 161°
2026-04-18 10:23 49.05767 6.66814 34184 ft 465 kts 160°
2026-04-18 10:24 48.99821 6.70448 34182 ft 460 kts 169°
2026-04-18 10:24 48.93555 6.71581 34190 ft 450 kts 186°
2026-04-18 10:25 48.87301 6.71239 34162 ft 451 kts 186°
2026-04-18 10:25 48.81022 6.70916 34190 ft 452 kts 186°
2026-04-18 10:26 48.74721 6.70649 34201 ft 454 kts 185°
2026-04-18 10:26 48.68390 6.70403 34196 ft 456 kts 185°
2026-04-18 10:27 48.62038 6.70158 34191 ft 457 kts 185°
2026-04-18 10:27 48.55672 6.69911 34189 ft 458 kts 185°
2026-04-18 10:28 48.49295 6.69664 34189 ft 458 kts 185°
2026-04-18 10:28 48.42926 6.69417 34180 ft 458 kts 185°
2026-04-18 10:29 48.36606 6.69175 34194 ft 457 kts 185°
2026-04-18 10:29 48.30250 6.68937 34193 ft 457 kts 185°
2026-04-18 10:30 48.23899 6.68699 34177 ft 456 kts 185°
2026-04-18 10:30 48.17553 6.68462 34183 ft 456 kts 185°
2026-04-18 10:31 48.11214 6.68224 34193 ft 455 kts 185°
2026-04-18 10:31 48.04879 6.67990 34176 ft 455 kts 185°
2026-04-18 10:32 47.98550 6.67756 34190 ft 455 kts 185°
2026-04-18 10:32 47.92227 6.67522 34195 ft 455 kts 185°
2026-04-18 10:33 47.85895 6.67288 34193 ft 455 kts 185°
2026-04-18 10:33 47.79568 6.67055 34179 ft 455 kts 185°
2026-04-18 10:34 47.73241 6.66823 34188 ft 455 kts 185°
2026-04-18 10:34 47.66915 6.66591 34193 ft 455 kts 185°
2026-04-18 10:35 47.60574 6.66359 34169 ft 456 kts 185°
2026-04-18 10:35 47.55307 6.66167 34183 ft 456 kts 185°
2026-04-18 10:36 47.48966 6.65937 34188 ft 456 kts 185°
2026-04-18 10:36 47.42641 6.65521 34174 ft 452 kts 194°
2026-04-18 10:36 47.39650 6.64259 34187 ft 445 kts 206°
2026-04-18 10:37 47.36928 6.62161 34175 ft 440 kts 217°
2026-04-18 10:37 47.32269 6.56422 34184 ft 436 kts 224°
2026-04-18 10:38 47.27683 6.50552 34201 ft 438 kts 224°
2026-04-18 10:38 47.23049 6.44724 34201 ft 439 kts 223°
2026-04-18 10:39 47.18388 6.38914 34183 ft 439 kts 223°
2026-04-18 10:39 47.13725 6.33112 34190 ft 440 kts 223°
2026-04-18 10:40 47.09040 6.27408 34191 ft 442 kts 217°
2026-04-18 10:40 47.03368 6.23648 34193 ft 451 kts 198°
2026-04-18 10:41 46.97107 6.22485 34201 ft 456 kts 188°
2026-04-18 10:41 46.90826 6.21763 34194 ft 456 kts 188°
2026-04-18 10:42 46.84508 6.20987 34192 ft 455 kts 188°
2026-04-18 10:42 46.78197 6.20161 34182 ft 456 kts 189°
2026-04-18 10:43 46.71884 6.19319 34193 ft 455 kts 189°
2026-04-18 10:43 46.65575 6.18480 34199 ft 455 kts 189°
2026-04-18 10:44 46.59262 6.17644 34193 ft 456 kts 189°
2026-04-18 10:44 46.52945 6.16811 34202 ft 456 kts 189°
2026-04-18 10:45 46.46620 6.15979 34191 ft 456 kts 189°
2026-04-18 10:45 46.40303 6.15150 34189 ft 456 kts 189°
2026-04-18 10:46 46.33991 6.14323 34209 ft 455 kts 189°
2026-04-18 10:46 46.27682 6.13498 34210 ft 455 kts 189°
2026-04-18 10:47 46.21440 6.12458 34212 ft 453 kts 192°
2026-04-18 10:47 46.15215 6.11020 34215 ft 453 kts 193°
2026-04-18 10:48 46.08989 6.09577 34215 ft 453 kts 192°
2026-04-18 10:48 46.02746 6.08185 34188 ft 454 kts 192°
2026-04-18 10:49 45.96496 6.06812 34187 ft 454 kts 192°
2026-04-18 10:49 45.90457 6.04482 34189 ft 446 kts 209°
2026-04-18 10:50 45.85045 6.00202 34187 ft 444 kts 212°
2026-04-18 10:50 45.79659 5.95851 34174 ft 445 kts 212°
2026-04-18 10:51 45.74242 5.91548 34186 ft 445 kts 212°
2026-04-18 10:51 45.68814 5.87283 34186 ft 445 kts 212°
2026-04-18 10:52 45.63383 5.83031 34190 ft 445 kts 212°
2026-04-18 10:52 45.57946 5.78784 34179 ft 445 kts 212°
2026-04-18 10:53 45.52518 5.74553 34195 ft 444 kts 212°
2026-04-18 10:53 45.47090 5.70329 34189 ft 444 kts 212°
2026-04-18 10:54 45.41698 5.66142 34169 ft 444 kts 212°
2026-04-18 10:54 45.36273 5.61940 34180 ft 444 kts 211°
2026-04-18 10:55 45.30855 5.57752 34184 ft 443 kts 211°
2026-04-18 10:55 45.25433 5.53569 34197 ft 443 kts 211°
2026-04-18 10:56 45.20000 5.49388 34182 ft 445 kts 211°
2026-04-18 10:56 45.14554 5.45204 34187 ft 445 kts 211°
2026-04-18 10:57 45.09190 5.40827 34177 ft 444 kts 219°
2026-04-18 10:57 45.04694 5.34943 34184 ft 440 kts 228°
2026-04-18 10:58 45.00393 5.28780 34181 ft 440 kts 227°
2026-04-18 10:58 44.96062 5.22658 34180 ft 440 kts 227°
2026-04-18 10:59 44.91713 5.16571 34183 ft 440 kts 227°
2026-04-18 10:59 44.87359 5.10498 34185 ft 440 kts 227°
2026-04-18 11:00 44.82997 5.04425 34176 ft 441 kts 227°
2026-04-18 11:00 44.78634 4.98362 34185 ft 441 kts 227°
2026-04-18 11:00 44.76442 4.95321 33834 ft 446 kts 227°
2026-04-18 11:01 44.74218 4.92262 33227 ft 446 kts 225°
2026-04-18 11:01 44.71798 4.89537 32554 ft 447 kts 216°
2026-04-18 11:01 44.69096 4.87367 31864 ft 449 kts 208°
2026-04-18 11:02 44.63456 4.83549 30410 ft 451 kts 208°
2026-04-18 11:02 44.60676 4.81632 29567 ft 452 kts 209°
2026-04-18 11:02 44.57862 4.79665 28713 ft 452 kts 209°
2026-04-18 11:02 44.55038 4.77708 27891 ft 452 kts 207°
2026-04-18 11:03 44.52141 4.75983 27067 ft 453 kts 204°
2026-04-18 11:03 44.49205 4.74417 26509 ft 448 kts 203°
2026-04-18 11:03 44.46292 4.72917 25895 ft 444 kts 203°
2026-04-18 11:03 44.43405 4.71433 25318 ft 440 kts 203°
2026-04-18 11:04 44.40546 4.69943 24740 ft 436 kts 204°
2026-04-18 11:04 44.37719 4.68452 24167 ft 433 kts 204°
2026-04-18 11:04 44.34913 4.66960 23550 ft 430 kts 204°
2026-04-18 11:04 44.32125 4.65471 22893 ft 427 kts 204°
2026-04-18 11:05 44.29361 4.63995 22307 ft 423 kts 204°
2026-04-18 11:05 44.26626 4.62533 21723 ft 420 kts 204°
2026-04-18 11:05 44.23912 4.61084 21157 ft 416 kts 204°
2026-04-18 11:05 44.21210 4.59645 20597 ft 413 kts 204°
2026-04-18 11:06 44.18536 4.58221 20047 ft 411 kts 204°
2026-04-18 11:06 44.15871 4.56804 19500 ft 410 kts 204°
2026-04-18 11:06 44.13210 4.55389 18938 ft 409 kts 204°
2026-04-18 11:06 44.10552 4.53978 18373 ft 410 kts 204°
2026-04-18 11:07 44.07867 4.52553 17746 ft 416 kts 203°
2026-04-18 11:07 44.05159 4.51119 17147 ft 416 kts 203°
2026-04-18 11:07 44.02473 4.49678 16558 ft 412 kts 203°
2026-04-18 11:07 43.99850 4.48256 15999 ft 408 kts 203°
2026-04-18 11:08 43.97181 4.46805 15438 ft 405 kts 203°
2026-04-18 11:08 43.94608 4.45409 14892 ft 401 kts 203°
2026-04-18 11:08 43.92013 4.44005 14348 ft 399 kts 203°
2026-04-18 11:08 43.89402 4.42595 13758 ft 397 kts 203°
2026-04-18 11:09 43.86880 4.41212 13175 ft 393 kts 206°
2026-04-18 11:09 43.84644 4.39122 12597 ft 386 kts 228°
2026-04-18 11:09 43.82887 4.36359 12102 ft 380 kts 232°
2026-04-18 11:09 43.81155 4.33600 11564 ft 378 kts 231°
2026-04-18 11:10 43.79435 4.30887 11289 ft 369 kts 230°
2026-04-18 11:10 43.77762 4.28271 11120 ft 358 kts 231°
2026-04-18 11:10 43.76135 4.25738 10960 ft 347 kts 231°
2026-04-18 11:10 43.74557 4.23287 10803 ft 336 kts 231°
2026-04-18 11:11 43.73026 4.20911 10686 ft 326 kts 230°
2026-04-18 11:11 43.71535 4.18600 10539 ft 317 kts 230°
2026-04-18 11:11 43.70085 4.16357 10417 ft 308 kts 230°
2026-04-18 11:11 43.68677 4.14181 10300 ft 300 kts 230°
2026-04-18 11:12 43.67300 4.12055 10167 ft 293 kts 230°
2026-04-18 11:12 43.65948 4.09968 9890 ft 291 kts 230°
2026-04-18 11:12 43.64601 4.07890 9603 ft 290 kts 230°
2026-04-18 11:12 43.63261 4.05823 9301 ft 288 kts 230°
2026-04-18 11:13 43.61924 4.03762 9021 ft 287 kts 230°
2026-04-18 11:13 43.60592 4.01713 8727 ft 287 kts 230°
2026-04-18 11:13 43.59058 3.99967 8384 ft 289 kts 206°
2026-04-18 11:13 43.57115 3.99384 8115 ft 288 kts 177°
2026-04-18 11:14 43.55196 4.00039 7855 ft 285 kts 152°
2026-04-18 11:14 43.53525 4.01479 7580 ft 282 kts 144°
2026-04-18 11:14 43.51932 4.03038 7388 ft 278 kts 143°
2026-04-18 11:14 43.50383 4.04570 7251 ft 271 kts 143°
2026-04-18 11:15 43.48865 4.06060 7125 ft 265 kts 143°
2026-04-18 11:15 43.47382 4.07502 7008 ft 258 kts 143°
2026-04-18 11:15 43.45934 4.08898 6893 ft 251 kts 143°
2026-04-18 11:15 43.44507 4.10269 6654 ft 250 kts 143°
2026-04-18 11:16 43.43085 4.11631 6413 ft 249 kts 143°
2026-04-18 11:16 43.41667 4.12987 6155 ft 248 kts 143°
2026-04-18 11:16 43.40454 4.14591 5950 ft 239 kts 115°
2026-04-18 11:16 43.40081 4.16676 5858 ft 222 kts 83°
2026-04-18 11:17 43.40448 4.18631 5757 ft 206 kts 58°
2026-04-18 11:17 43.41349 4.20125 5501 ft 204 kts 33°
2026-04-18 11:17 43.42594 4.20922 5341 ft 194 kts 12°
2026-04-18 11:17 43.43917 4.21042 5197 ft 190 kts 352°
2026-04-18 11:18 43.45175 4.20512 5087 ft 189 kts 340°
2026-04-18 11:18 43.46377 4.19778 4951 ft 191 kts 326°
2026-04-18 11:18 43.47183 4.18320 4876 ft 196 kts 300°
2026-04-18 11:18 43.47939 4.16766 4736 ft 194 kts 314°
2026-04-18 11:19 43.48751 4.15332 4596 ft 185 kts 307°
2026-04-18 11:19 43.49456 4.13877 4481 ft 181 kts 307°
2026-04-18 11:19 43.50159 4.12446 4400 ft 180 kts 307°
2026-04-18 11:19 43.50872 4.11013 4294 ft 182 kts 306°
2026-04-18 11:20 43.51551 4.09511 3887 ft 189 kts 305°
2026-04-18 11:20 43.52306 4.07939 3198 ft 203 kts 307°
2026-04-18 11:20 43.53151 4.06368 2479 ft 205 kts 309°
2026-04-18 11:20 43.53978 4.04768 1835 ft 204 kts 304°
2026-04-18 11:21 43.54777 4.03176 1235 ft 200 kts 308°
2026-04-18 11:21 43.55548 4.01692 874 ft 183 kts 304°
2026-04-18 11:21 43.56247 4.00268 446 ft 175 kts 306°
2026-04-18 11:21 43.56912 3.98926 147 ft 159 kts 310°
2026-04-18 11:22 43.57512 3.97762 19 ft 142 kts 309°
2026-04-18 11:22 43.58002 3.96805 21 ft 101 kts 304°
2026-04-18 11:22 43.58309 3.96180 25 ft 49 kts 305°
2026-04-18 11:22 43.58499 3.95815 22 ft 44 kts 304°
2026-04-18 11:23 43.58571 3.95646 25 ft 13 kts 301°
2026-04-18 11:23 43.58552 3.95540 27 ft 13 kts 218°
2026-04-18 11:23 43.58472 3.95504 25 ft 12 kts 165°
2026-04-18 11:23 43.58407 3.95575 24 ft 12 kts 127°
2026-04-18 11:24 43.58359 3.95668 27 ft 12 kts 125°
2026-04-18 11:24 43.58313 3.95759 25 ft 11 kts 124°
2026-04-18 11:24 43.58256 3.95825 24 ft 11 kts 174°
2026-04-18 11:24 43.58227 3.95815 23 ft 1 kts 210°
2026-04-18 11:25 43.58220 3.95808 25 ft 2 kts 215°
2026-04-18 11:25 43.58198 3.95783 24 ft 7 kts 217°
2026-04-18 11:25 43.58162 3.95766 23 ft 10 kts 181°
2026-04-18 11:25 43.58106 3.95816 22 ft 10 kts 124°
2026-04-18 11:26 43.58067 3.95894 22 ft 10 kts 123°
2026-04-18 11:26 43.58040 3.95968 22 ft 7 kts 138°
2026-04-18 11:26 43.57992 3.95956 21 ft 6 kts 206°
2026-04-18 11:26 43.57981 3.95948 22 ft 0 kts 206°